Total_Precipitation_Accumulation
0.04 0.07 0.07 0.09 0.11 0.14 0.18 0.23 0.26 0.27 0.26 0.32 0.38 0.55 0.69 0.87 0.92 1.00 1.13 1.27 1.23 1.32 1.51 1.88 2.41 3.11 3.56 3.74 3.82 3.95 3.95 4.00 4.01 3.95 3.95 4.14 4.29 4.31 4.30 4.44 4.48 4.30 4.20 4.30
0.07 0.08 0.08 0.09 0.12 0.14 0.21 0.25 0.29 0.33 0.29 0.32 0.44 0.60 0.76 0.88 0.93 1.02 1.15 1.17 1.15 1.16 1.41 1.88 2.36 2.86 3.19 3.51 3.66 3.80 3.80 4.03 4.28 4.65 5.13 5.41 5.53 5.41 5.22 5.12 5.04 4.92 4.80 4.84
0.08 0.06 0.05 0.05 0.10 0.14 0.21 0.22 0.30 0.39 0.40 0.38 0.52 0.83 0.92 0.99 1.11 1.25 1.31 1.38 1.39 1.25 1.42 1.81 2.07 2.48 2.77 3.09 3.37 3.56 3.85 4.33 4.85 5.51 6.29 6.60 6.36 5.96 5.73 5.39 5.32 5.10 4.87 4.83
0.03 0.03 0.04 0.05 0.07 0.11 0.17 0.15 0.22 0.29 0.38 0.44 0.45 0.91 1.19 1.28 1.43 1.56 1.43 1.40 1.44 1.42 1.46 1.67 1.92 2.20 2.40 2.79 3.23 3.65 4.13 4.76 5.41 5.97 6.45 6.66 6.54 6.27 5.97 5.53 5.13 4.74 4.40 4.21
0.04 0.05 0.09 0.13 0.08 0.10 0.11 0.12 0.15 0.19 0.26 0.40 0.45 0.75 1.28 1.49 1.60 1.67 1.53 1.49 1.43 1.43 1.38 1.53 1.74 1.99 2.31 2.73 3.19 3.68 4.16 4.82 5.33 5.85 6.23 6.42 6.42 6.30 5.91 5.25 4.61 4.20 3.85 3.59
0.05 0.06 0.10 0.11 0.07 0.08 0.10 0.11 0.15 0.21 0.28 0.48 0.46 0.72 1.38 1.75 1.81 1.72 1.66 1.63 1.50 1.49 1.54 1.55 1.64 1.82 2.25 2.66 3.14 3.49 3.84 4.53 5.20 5.69 6.04 6.30 6.27 6.02 5.39 4.70 4.15 3.81 3.50 3.22
0.13 0.11 0.10 0.09 0.09 0.09 0.12 0.19 0.38 0.50 0.59 0.62 0.48 0.77 1.39 1.57 1.54 1.54 1.48 1.44 1.48 1.47 1.45 1.48 1.69 1.83 2.31 2.70 3.00 3.25 3.49 3.90 4.39 4.83 5.12 5.29 5.35 5.16 4.73 4.29 3.82 3.47 3.20 2.92
0.25 0.21 0.12 0.08 0.07 0.08 0.11 0.20 0.49 0.71 0.76 0.73 0.75 1.29 1.74 1.51 1.44 1.44 1.44 1.32 1.32 1.41 1.42 1.43 1.67 1.89 2.04 2.27 2.52 2.82 3.04 3.30 3.55 3.77 3.96 3.93 3.94 3.92 3.72 3.37 2.95 2.65 2.38 2.21
0.26 0.23 0.11 0.07 0.04 0.05 0.10 0.17 0.21 0.38 0.44 0.71 1.08 1.45 1.82 1.73 1.70 1.50 1.39 1.34 1.34 1.34 1.37 1.47 1.65 1.79 1.86 1.97 2.18 2.36 2.44 2.62 2.69 2.65 2.63 2.69 2.70 2.71 2.61 2.48 2.22 1.91 1.66 1.54
0.20 0.19 0.13 0.09 0.07 0.07 0.11 0.16 0.23 0.51 0.73 0.94 1.18 1.72 2.20 2.19 2.00 1.75 1.50 1.35 1.23 1.25 1.32 1.42 1.56 1.72 1.81 1.82 1.99 2.08 2.02 2.02 2.07 2.10 2.03 1.96 2.00 2.03 2.01 1.94 1.79 1.60 1.42 1.30
0.19 0.22 0.19 0.14 0.16 0.17 0.17 0.20 0.27 0.47 0.61 1.03 1.44 2.07 2.13 2.23 2.12 1.98 1.87 1.52 1.33 1.34 1.37 1.48 1.48 1.48 1.51 1.54 1.58 1.65 1.66 1.66 1.63 1.62 1.64 1.62 1.58 1.53 1.53 1.57 1.51 1.37 1.26 1.15
0.21 0.24 0.33 0.25 0.21 0.18 0.19 0.23 0.31 0.58 0.69 0.78 1.23 2.07 1.83 2.17 2.27 2.15 1.99 1.65 1.52 1.49 1.51 1.54 1.46 1.36 1.36 1.47 1.48 1.46 1.43 1.40 1.40 1.43 1.45 1.49 1.34 1.26 1.27 1.27 1.24 1.16 1.13 1.10
0.21 0.32 0.53 0.62 0.55 0.36 0.29 0.25 0.28 0.36 0.56 0.74 1.18 2.00 1.95 2.12 2.30 2.09 1.85 1.69 1.64 1.66 1.68 1.69 1.58 1.41 1.35 1.39 1.39 1.27 1.20 1.19 1.13 1.15 1.25 1.33 1.22 1.14 1.14 1.10 1.07 1.08 1.07 1.05
0.18 0.40 0.74 1.11 0.97 0.55 0.41 0.31 0.27 0.36 0.63 0.78 1.05 1.55 1.80 1.95 1.98 1.87 1.79 1.71 1.70 1.68 1.64 1.69 1.64 1.46 1.44 1.35 1.30 1.14 1.09 1.09 1.06 1.03 1.04 1.10 1.12 1.09 1.05 1.04 1.01 0.95 0.92 0.90
0.22 0.43 0.52 0.45 0.36 0.37 0.39 0.35 0.33 0.41 0.52 0.81 1.10 1.41 1.69 1.93 2.01 1.97 1.82 1.71 1.66 1.64 1.67 1.77 1.69 1.46 1.45 1.43 1.37 1.17 1.05 1.05 1.03 1.05 1.04 1.03 1.03 0.97 0.97 0.99 0.96 0.85 0.81 0.74
0.24 0.35 0.43 0.42 0.35 0.37 0.44 0.44 0.43 0.48 0.59 0.80 1.10 1.51 1.78 2.04 2.05 1.93 1.78 1.69 1.75 1.73 1.71 1.67 1.55 1.47 1.46 1.45 1.40 1.23 1.08 1.01 1.01 1.09 1.11 1.08 1.06 1.00 0.95 0.94 0.93 0.85 0.83 0.78
0.28 0.43 0.65 0.63 0.44 0.58 0.91 0.76 0.71 0.74 0.76 0.95 1.23 1.49 1.66 1.87 1.97 1.95 1.83 1.85 1.95 1.87 1.90 1.83 1.66 1.57 1.60 1.54 1.39 1.30 1.15 1.08 1.06 1.07 1.04 1.07 1.09 1.00 0.91 0.86 0.93 0.91 0.89 0.80
0.35 0.54 0.76 0.74 0.86 1.36 1.25 0.75 0.75 0.86 0.81 0.80 0.97 1.11 1.29 1.50 1.59 1.64 1.70 1.82 1.95 1.92 1.90 1.81 1.70 1.67 1.62 1.56 1.49 1.40 1.21 1.08 1.03 1.02 0.97 0.97 0.98 0.99 0.91 0.88 0.90 0.89 0.90 0.89
0.28 0.56 0.92 0.98 1.23 1.42 1.26 0.85 0.71 0.97 1.18 0.86 0.82 0.92 1.04 1.07 1.31 1.61 1.55 1.54 1.69 1.75 1.75 1.70 1.65 1.66 1.58 1.49 1.43 1.35 1.21 1.06 0.94 0.91 0.91 0.85 0.82 0.81 0.80 0.78 0.80 0.88 0.90 0.89
0.29 0.52 0.95 1.15 1.49 1.72 1.40 0.74 0.58 0.95 1.59 1.05 0.95 0.96 1.12 1.20 1.51 1.55 1.29 1.27 1.39 1.50 1.52 1.47 1.42 1.43 1.44 1.35 1.29 1.28 1.22 1.08 0.89 0.77 0.71 0.70 0.72 0.72 0.74 0.76 0.79 0.77 0.83 0.85
0.66 0.77 0.97 1.22 1.65 1.62 0.91 0.56 0.68 1.49 1.68 1.07 1.05 1.10 1.15 1.26 1.32 1.16 1.05 1.22 1.36 1.40 1.40 1.32 1.24 1.23 1.21 1.14 1.06 1.05 1.04 0.93 0.71 0.59 0.55 0.59 0.59 0.61 0.61 0.70 0.73 0.71 0.70 0.75
1.00 1.20 1.31 1.46 1.77 1.75 0.81 0.68 1.09 1.32 0.95 0.93 1.00 0.98 0.99 0.91 0.85 0.92 1.01 1.20 1.32 1.36 1.32 1.20 1.13 1.04 0.97 0.90 0.94 0.95 0.82 0.65 0.55 0.51 0.50 0.51 0.50 0.44 0.45 0.61 0.64 0.63 0.70 0.68
1.10 1.35 1.46 1.61 1.74 1.33 0.81 0.82 0.84 0.83 0.85 0.84 0.89 0.84 0.83 0.83 0.83 0.90 1.03 1.12 1.24 1.21 1.14 1.00 0.90 0.81 0.75 0.80 0.85 0.82 0.67 0.53 0.48 0.53 0.56 0.50 0.44 0.43 0.41 0.48 0.51 0.53 0.61 0.58
1.18 1.13 1.19 1.31 1.33 1.08 0.88 0.76 0.72 0.71 0.73 0.72 0.77 0.80 0.83 0.88 0.90 0.95 1.01 1.01 1.07 1.05 0.95 0.83 0.79 0.75 0.75 0.74 0.66 0.60 0.46 0.41 0.47 0.55 0.56 0.52 0.49 0.46 0.39 0.37 0.35 0.36 0.40 0.42
1.07 1.23 1.40 1.41 1.32 1.14 0.96 0.77 0.72 0.75 0.76 0.77 0.82 0.81 0.78 0.83 0.90 0.95 0.95 0.89 0.89 0.86 0.79 0.70 0.73 0.71 0.68 0.59 0.54 0.46 0.39 0.39 0.49 0.52 0.48 0.45 0.42 0.41 0.38 0.30 0.25 0.24 0.25 0.27
0.79 1.12 1.51 1.55 1.26 1.17 1.09 0.95 0.84 0.90 1.00 0.96 0.86 0.80 0.75 0.73 0.71 0.68 0.69 0.67 0.68 0.69 0.63 0.59 0.60 0.58 0.51 0.46 0.45 0.38 0.33 0.32 0.43 0.46 0.45 0.40 0.36 0.34 0.30 0.28 0.26 0.21 0.20 0.21